Regional Weather Roundup
Issued by NWS

Home | Current Version | Previous Version | Text Only | Print | Product List | Glossary On
Versions: 1 2 3 4 5 6 7 8 9 10 11 12 13 14 15 16 17 18 19 20 21 22 23 24 25 26 27 28 29 30 31 32 33 34 35 36 37 38 39 40 41 42 43 44 45 46 47 48 49 50
000
ASUS45 KPSR 300310
RWRAZ

ARIZONA REGIONAL HOURLY WEATHER ROUNDUP
NATIONAL WEATHER SERVICE PHOENIX AZ
800 PM MST FRI AUG 29 2014

NOTE: FAIR INDICATES FEW OR NO CLOUDS BELOW 12,000 FEET WITH NO
SIGNIFICANT WEATHER AND/OR OBSTRUCTIONS TO VISIBILITY.

AZZ001>003-036-300400-
NORTHWEST ARIZONA

CITY           SKY/WX    TMP DP  RH WIND       PRES   REMARKS
BULLHEAD CITY  MOCLDY    99  39  12 CALM      29.69R
KINGMAN        PTCLDY    81  35  19 S9        29.94R
$$

AZZ004>008-015-016-018-300400-
NORTH CENTRAL ARIZONA

CITY           SKY/WX    TMP DP  RH WIND       PRES   REMARKS
GRAND CANYON     N/A    N/A N/A N/A MISG        N/A
WILLIAMS       CLEAR     68  41  37 S3        30.27R
PRESCOTT       PTCLDY    72  50  45 SW6       30.07R
FLAGSTAFF      CLEAR     60  44  55 CALM      30.26R
PAYSON         CLEAR     77  37  24 N3        30.11R
PAGE           MOCLDY    83  34  17 CALM      30.00S
$$

AZZ009>014-017-300400-
NORTHEAST ARIZONA

CITY           SKY/WX    TMP DP  RH WIND       PRES   REMARKS
WINSLOW        CLEAR     69  48  47 W6        30.09R
SAINT JOHNS    CLEAR     71  46  40 SW3       30.12R
WINDOW ROCK    PTCLDY    70  33  25 N3        30.22R
SHOW LOW       CLEAR     66  37  34 NW3       30.22R
$$

AZZ023-300400-
GREATER PHOENIX AREA

CITY           SKY/WX    TMP DP  RH WIND       PRES   REMARKS
PHOENIX        PTCLDY   102  41  12 W9        29.71R
BUCKEYE          N/A     93  52  24 CALM      29.73R
GLENDALE       PTCLDY   100  43  14 SW6       29.73R
LUKE AFB       NOT AVBL
DEER VALLEY    CLEAR     98  39  13 W8        29.74R
SCOTTSDALE     CLEAR     98  43  15 W6        29.76R
MESA-FALCON    CLEAR     99  41  13 SW7       29.74R
MESA-GATEWAY   CLEAR     97  39  13 W8        29.76R
CHANDLER       CLEAR     97  41  14 W9        29.74R
$$

AZZ027-028-300400-
SOUTHWEST MARICOPA COUNTY AND PINAL COUNTY

CITY           SKY/WX    TMP DP  RH WIND       PRES   REMARKS
CASA GRANDE    CLEAR     93  39  15 CALM      29.77S
$$

AZZ503-504-507>509-300400-
SOUTHEAST ARIZONA

CITY           SKY/WX    TMP DP  RH WIND       PRES   REMARKS
TUCSON         CLEAR     93  38  14 N5        29.88R
DAVIS-MONTHAN  CLEAR     91  37  15 VRB1      29.86R
RYAN FIELD       N/A     90  45  20 NW3       29.87R
NOGALES        CLOUDY    76  56  49 E8        29.98R
SIERRA VISTA   PTCLDY    79  48  34 SW9       30.05R
DOUGLAS        CLEAR     74  49  41 NW9       30.00R
SAFFORD        CLEAR     87  43  21 SW6       29.89R
$$

AZZ020-021-025-026-031-300400-
SOUTHWEST ARIZONA

CITY           SKY/WX    TMP DP  RH WIND       PRES   REMARKS
YUMA           CLEAR    102  41  12 W5        29.65R
$$

CAZ031-033-041-043-047-048-061-300400-
SOUTHERN CALIFORNIA

CITY           SKY/WX    TMP DP  RH WIND       PRES   REMARKS
DOWNTOWN L.A.  CLEAR     73  59  61 CALM      29.81R
L.A. AIRPORT   PTCLDY    69  63  81 SW8       29.82R
SAN DIEGO      PTCLDY    71  64  78 NW8       29.84R
BURBANK        CLEAR     80  53  39 SE7       29.82R
ONTARIO        PTCLDY    83  55  38 W7        29.81R
RIVERSIDE      CLEAR     82  48  30 W6        29.82R
PALM SPRINGS   CLEAR    104  43  12 NW17      29.69R
EL CENTRO NAS  CLEAR    100  43  14 S12       29.63R
IMPERIAL       CLEAR    104  40  11 SE3       29.62R
BLYTHE         CLEAR     99  41  13 SE3       29.66S
NEEDLES        PTCLDY   100  33   9 S5        29.70R
$$

NVZ020-UTZ003-300400-
SOUTHERN NEVADA-UTAH

CITY           SKY/WX    TMP DP  RH WIND       PRES   REMARKS
LAS VEGAS      PTCLDY    99  32   9 S9        29.76R
SALT LAKE CITY MOCLDY    77  42  28 SE9       29.95S
$$

NMZ009-TXZ055-300400-
NEW MEXICO-WEST TEXAS

CITY           SKY/WX    TMP DP  RH WIND       PRES   REMARKS
ALBUQUERQUE    PTCLDY    74  42  31 SE6       30.11R
EL PASO        PTCLDY    86  44  23 S3        29.98R
$$


........................KEY........................
SKY/WX - SKY CONDITION/WEATHER
TMP    - TEMPERATURE IN FAHRENHEIT
DP     - DEW POINT IN FAHRENHEIT
RH     - RELATIVE HUMIDITY IN PERCENT
WIND   - DIRECTION AND SPEED IN MILES PER HOUR (MPH)
VRB    - VARIABLE WIND DIRECTION
PRES   - MEAN SEA LEVEL PRESSURE IN INCHES OF MERCURY
         F - FALLING PRESSURE   R - RISING PRESSURE
         S - STEADY PRESSURE
VSB    - VISIBILITY IN MILES
HX     - HEAT INDEX IN FAHRENHEIT
WCI    - WIND CHILL INDEX IN FAHRENHEIT
TC     - TEMPERATURE IN CELSIUS WHICH IS ALSO KNOWN AS
         TEMPERATURE IN CENTIGRADE
AFB    - AIR FORCE BASE
         LUKE AFB IS LUKE AIR FORCE BASE
         DAVIS-MONTHAN IS DAVIS-MONTHAN AIR FORCE BASE
NAS    - NAVAL AIR STATION
         EL CENTRO NAS IS EL CENTRO NAVAL AIR STATION
N/A    - NOT AVAILABLE



USA.gov is the U.S. government's official web portal to all federal, state and local government web resources and services.